OK1VCF-5 Weather Reports


time (UTC)temp
C
wind
direction
speed
KPH
gust
KPH
rain 1hr
cm
rain 24hr
cm
rain mn
cm
humidity
%
barometer
mb
20260905222235 13 0 0.0 0.0 0.00 0.00 0.00 72 1028.2
20260905215406 14 0 0.0 0.0 0.00 0.00 0.00 66 1028.0
20260905215234 14 0 0.0 0.0 0.00 0.00 0.00 66 1028.0
20260905213730 15 0 0.0 0.0 0.00 0.00 0.00 63 1027.9
20260905212231 14 0 0.0 0.0 0.00 0.00 0.00 66 1027.8
20260905210731 15 0 0.0 0.0 0.00 0.00 0.00 64 1027.6
20260905205228 15 0 0.0 0.0 0.00 0.00 0.00 62 1027.5
20260905203729 15 0 0.0 0.0 0.00 0.00 0.00 64 1027.4
20260905202226 15 0 0.0 0.0 0.00 0.00 0.00 62 1027.3
20260905200731 16 0 0.0 0.0 0.00 0.00 0.00 59 1027.2
20260905195225 16 0 0.0 0.0 0.00 0.00 0.00 58 1027.0
20260905193724 16 0 0.0 0.0 0.00 0.00 0.00 57 1026.6
20260905192224 16 0 0.0 0.0 0.00 0.00 0.00 56 1026.5
20260905190727 -17 0 0.0 0.0 0.00 0.00 0.00
20260905190722 17 0 0.0 0.0 0.00 0.00 0.00 54 1026.4
20260905185222 17 0 0.0 0.0 0.00 0.00 0.00 52 1026.2
20260905183723 18 0 0.0 0.0 0.00 0.00 0.00 52 1025.9
20260905182221 18 0 0.0 0.0 0.00 0.00 0.00 52 1025.8
20260905180719 18 0 0.0 0.0 0.00 0.00 0.00 51 1025.5
20260905175218 18 0 0.0 0.0 0.00 0.00 0.00 52 1025.1
20260905173719 20 0 0.0 0.0 0.00 0.00 0.00 52 1024.8
20260905172217 20 0 0.0 0.0 0.00 0.00 0.00 52 1024.6
20260905170717 21 0 0.0 0.0 0.00 0.00 0.00 50 1024.2
20260905165216 21 0 0.0 0.0 0.00 0.00 0.00 50 1023.9
20260905163714 22 0 0.0 0.0 0.00 0.00 0.00 49 1023.7
20260905162217 22 0 0.0 0.0 0.00 0.00 0.00 49 1023.6
20260905161308 22 0 0.0 0.0 0.00 0.00 0.00 50 1023.4
20260905160715 22 0 0.0 0.0 0.00 0.00 0.00 50 1023.4
20260905155214 22 0 0.0 0.0 0.00 0.00 0.00 49 1023.2
20260905153714 23 0 0.0 0.0 0.00 0.00 0.00 48 1023.2
20260905152216 23 0 0.0 0.0 0.00 0.00 0.00 48 1023.2
20260905150712 23 0 0.0 0.0 0.00 0.00 0.00 48 1023.2
20260905143708 23 0 0.0 0.0 0.00 0.00 0.00 50 1023.3
20260905142207 24 0 0.0 0.0 0.00 0.00 0.00 48 1023.1
20260905135208 24 0 0.0 0.0 0.00 0.00 0.00 50 1023.4
20260905133707 23 0 0.0 0.0 0.00 0.00 0.00 49 1023.5
20260905133625 24 0 0.0 0.0 0.00 0.00 0.00 49 1023.4
20260905132205 24 0 0.0 0.0 0.00 0.00 0.00 49 1023.4
20260905125203 23 0 0.0 0.0 0.00 0.00 0.00 52 1023.6
20260905123703 23 0 0.0 0.0 0.00 0.00 0.00 50 1023.8
20260905122203 23 0 0.0 0.0 0.00 0.00 0.00 52 1024.0
20260905120700 23 0 0.0 0.0 0.00 0.00 0.00 49 1024.0
20260905115201 23 0 0.0 0.0 0.00 0.00 0.00 50 1024.2
20260905113700 23 0 0.0 0.0 0.00 0.00 0.00 50 1024.2
20260905112252 22 0 0.0 0.0 0.00 0.00 0.00 52 1024.2
20260905112158 22 0 0.0 0.0 0.00 0.00 0.00 52 1024.2
20260905110658 22 0 0.0 0.0 0.00 0.00 0.00 52 1024.4
20260905105158 23 0 0.0 0.0 0.00 0.00 0.00 52 1024.4
20260905104206 22 0 0.0 0.0 0.00 0.00 0.00 53 1024.4
20260905103656 22 0 0.0 0.0 0.00 0.00 0.00 53 1024.4
20260905102414 23 0 0.0 0.0 0.00 0.00 0.00 53 1024.2
20260905102155 23 0 0.0 0.0 0.00 0.00 0.00 53 1024.2
20260905100654 21 0 0.0 0.0 0.00 0.00 0.00 55 1024.4
20260905095153 21 0 0.0 0.0 0.00 0.00 0.00 58 1024.4
20260905092153 22 0 0.0 0.0 0.00 0.00 0.00 57 1024.2
20260905085242 21 0 0.0 0.0 0.00 0.00 0.00 62 1024.2
20260905085152 21 0 0.0 0.0 0.00 0.00 0.00 62 1024.2
20260905083653 20 0 0.0 0.0 0.00 0.00 0.00 64 1024.2
20260905082151 20 0 0.0 0.0 0.00 0.00 0.00 66 1024.3
20260905080652 19 0 0.0 0.0 0.00 0.00 0.00 69 1024.3
20260905075149 18 0 0.0 0.0 0.00 0.00 0.00 70 1024.0
20260905073646 17 0 0.0 0.0 0.00 0.00 0.00 72 1024.0
20260905072247 17 0 0.0 0.0 0.00 0.00 0.00 74 1024.0
20260905072150 17 0 0.0 0.0 0.00 0.00 0.00 74 1024.0
20260905070645 16 0 0.0 0.0 0.00 0.00 0.00 78 1023.9
20260905065145 16 0 0.0 0.0 0.00 0.00 0.00 80 1024.0
20260905063645 15 0 0.0 0.0 0.00 0.00 0.00 84 1024.0
20260905060642 14 0 0.0 0.0 0.00 0.00 0.00 87 1023.6
20260905055146 14 0 0.0 0.0 0.00 0.00 0.00 88 1023.6
20260905053744 15 0 0.0 0.0 0.00 0.00 0.00 88 1023.4
20260905053643 15 0 0.0 0.0 0.00 0.00 0.00 88 1023.4
20260905052244 14 0 0.0 0.0 0.00 0.00 0.00 90 1023.1
20260905052139 14 0 0.0 0.0 0.00 0.00 0.00 90 1023.1
20260905045138 14 0 0.0 0.0 0.00 0.00 0.00 89 1022.2
20260905042136 14 0 0.0 0.0 0.00 0.00 0.00 86 1022.4
20260905040737 14 0 0.0 0.0 0.00 0.00 0.00 88 1022.7
20260905040635 14 0 0.0 0.0 0.00 0.00 0.00 88 1022.7
20260905035135 14 0 0.0 0.0 0.00 0.00 0.00 87 1022.6
20260905033749 15 0 0.0 0.0 0.00 0.00 0.00 82 1022.6
20260905033635 15 0 0.0 0.0 0.00 0.00 0.00 82 1022.6
20260905032137 15 0 0.0 0.0 0.00 0.00 0.00 82 1022.0
20260905032134 15 0 0.0 0.0 0.00 0.00 0.00 82 1022.0
20260905030736 15 0 0.0 0.0 0.00 0.00 0.00 86 1021.8
20260905030632 15 0 0.0 0.0 0.00 0.00 0.00 86 1021.8
20260905025131 15 0 0.0 0.0 0.00 0.00 0.00 88 1021.8
20260905023631 15 0 0.0 0.0 0.00 0.00 0.00 86 1021.8
20260905020726 17 0 0.0 0.0 0.00 0.00 0.00 76 1021.1
20260905020631 17 0 0.0 0.0 0.00 0.00 0.00 76 1021.1
20260905015130 17 0 0.0 0.0 0.00 0.00 0.00 75 1020.4
20260905013627 17 0 0.0 0.0 0.00 0.00 0.00 74 1020.2
20260905012245 17 0 0.0 0.0 0.00 0.00 0.00 70 1020.1
20260905012130 17 0 0.0 0.0 0.00 0.00 0.00 70 1020.1
20260905010745 18 0 0.0 0.0 0.00 0.00 0.00 69 1020.2
20260905010626 18 0 0.0 0.0 0.00 0.00 0.00 69 1020.2
20260905003625 18 0 0.0 0.0 0.00 0.00 0.00 67 1020.0
20260905002123 18 0 0.0 0.0 0.00 0.00 0.00 65 1020.0
20260905000623 18 0 0.0 0.0 0.00 0.00 0.00 66 1019.9
20260904235122 18 0 0.0 0.0 0.00 0.00 0.00 67 1019.8
20260904233621 20 0 0.0 0.0 0.00 0.00 0.00 66 1019.2
20260904230620 22 0 0.0 0.0 0.00 0.00 0.00 60 1016.8
20260904225248 22 0 0.0 0.0 0.00 0.00 0.00 60 1016.6
20260904225119 22 0 0.0 0.0 0.00 0.00 0.00 60 1016.6
20260904223618 22 0 0.0 0.0 0.00 0.00 0.00 58 1016.4